Tracking 29892 objects as of 21-Nov-2024
HD Live streaming from Space Station
objects crossing your sky now

FENGYUN 1C DEB

Track FENGYUN 1C DEB now!
10-day predictions


NORAD ID: 38492
Int'l Code: 1999-025ESB
Perigee: 763.4 km
Apogee: 1,128.6 km
Inclination: 98.6 °
Period: 103.8 minutes
Semi major axis: 7316 km
RCS: 0.0084 m2 (small)
Launch date: May 10, 1999
Source: People's Republic of China (PRC)
Launch site: Taiyaun Space Center, China (TSC)

Note: This is SATELLITE DEBRIS
Your satellite tracking list
Your tracking list is empty




NASA's NSSDC Master Catalog

Two Line Element Set (TLE):
1 38492U 99025ESB 24317.51162081  .00017071  00000-0  11390-1 0  9993
2 38492  98.6165  51.7455 0249577 159.3144 201.8336 13.87088324700140
Source of the keplerian elements: AFSPC